Weather History for Two Harbors, MN

Change the Weather History Date:

Tuesday, July 2, 2013

  Actual Average Record
Temperature  
Mean Temperature 44 °F -  
Max Temperature 50 °F 69 °F 91 °F (1949)
Min Temperature 41 °F 48 °F 39 °F (1971)
Degree Days  
Heating Degree Days 20    
Moisture  
Dew Point 38 °F    
Average Humidity 78    
Maximum Humidity 81    
Minimum Humidity 62    
Precipitation  
Precipitation 0.00 in - - ()
Sea Level Pressure  
Sea Level Pressure 30.20 in    
Wind  
Wind Speed 1 mph (South)    
Max Wind Speed 4 mph    
Max Gust Speed -    
Visibility 10 miles    
Events      
Averages and records for this station are not official NWS values.
T = Trace of Precipitation, MM = Missing Value Source: NWS Daily Summary

Daily Weather History Graph

Daily Weather History Graph

Search for Another Location

Airport:

Trip Planner

Search our weather history database for the weather conditions in past years. The results will help you decide how hot, cold, wet, or windy it might be!

Date:

Astronomy

Jul. 02, 2013 Rise Set
Actual Time 5:16 AM CDT 9:05 PM CDT
Civil Twilight 4:36 AM CDT 9:44 PM CDT
Nautical Twilight 3:43 AM CDT 10:38 PM CDT
Astronomical Twilight 2:24 AM CDT 11:56 PM CDT
Moon 1:31 AM CDT (7/2) 4:10 PM CDT (7/2)
Length of Visible Light 17h 07m
Length of Day
15h 48m
Waning Crescent, 26% of the Moon is Illuminated
Jul 2
Waning Crescent
Jul 8
New
Jul 15
First Quarter
Jul 22
Full
Jul 29
Last Quarter

Hourly Weather History & Observations

Time (CDT) Temp. Dew Point Humidity Pressure Visibility Wind Dir Wind Speed Gust Speed Precip Events Conditions
12:12 AM 48.2 °F 39.2 °F 71% 30.20 in 10.0 mi North 3.5 mph - N/A   Clear
12:31 AM 46.4 °F 39.2 °F 76% 30.20 in 10.0 mi Calm Calm - N/A   Clear
12:51 AM 46.4 °F 37.4 °F 71% 30.20 in 10.0 mi Calm Calm - N/A   Clear
1:12 AM 44.6 °F 39.2 °F 81% 30.20 in 5.0 mi Calm Calm - N/A   Haze
1:31 AM 44.6 °F 37.4 °F 76% 30.20 in 10.0 mi Calm Calm - N/A   Clear
1:51 AM 44.6 °F 39.2 °F 81% 30.20 in 10.0 mi Calm Calm - N/A   Clear
2:12 AM 44.6 °F 39.2 °F 81% 30.19 in 10.0 mi Calm Calm - N/A   Clear
2:31 AM 44.6 °F 39.2 °F 81% 30.20 in 10.0 mi Calm Calm - N/A   Clear
2:51 AM 42.8 °F 37.4 °F 81% 30.20 in 10.0 mi Calm Calm - N/A   Clear
3:12 AM 42.8 °F 37.4 °F 81% 30.20 in 10.0 mi Calm Calm - N/A   Clear
3:31 AM 44.6 °F 37.4 °F 76% 30.20 in 10.0 mi Calm Calm - N/A   Clear
3:51 AM 42.8 °F 37.4 °F 81% 30.19 in 10.0 mi Calm Calm - N/A   Clear
4:11 AM 42.8 °F 37.4 °F 81% 30.19 in 10.0 mi Calm Calm - N/A   Clear
4:31 AM 41.0 °F 35.6 °F 81% 30.19 in 10.0 mi Calm Calm - N/A   Clear
4:52 AM 42.8 °F 37.4 °F 81% 30.19 in 10.0 mi Calm Calm - N/A   Clear
5:11 AM 41.0 °F 35.6 °F 81% 30.19 in 10.0 mi Calm Calm - N/A   Clear
5:31 AM 42.8 °F 37.4 °F 81% 30.20 in 10.0 mi Calm Calm - N/A   Clear
5:51 AM 42.8 °F 37.4 °F 81% 30.20 in 10.0 mi Calm Calm - N/A   Clear
6:11 AM 42.8 °F 37.4 °F 81% 30.20 in 10.0 mi Calm Calm - N/A   Clear
6:32 AM 44.6 °F 39.2 °F 81% 30.20 in 10.0 mi Calm Calm - N/A   Clear
6:50 AM 50.0 °F 37.4 °F 62% 30.20 in 10.0 mi Calm Calm - N/A   Clear
7:02 AM - - N/A% - - North - - N/A   Unknown